Location: Observatoire de Paris
(48.8363°N, 2.3365°E)
Time: 09:18:07
(UTC+01:00)

A-11 Canister half - All Passes

Search period start: 24 July 2021 00:00
Search period end: 03 August 2021 00:00
Orbit: 1527 x 1682 km, 47.3° (Epoch: 23 July)

Date Brightness Start Highest point End Pass type
(mag) Time Alt. Az. Time Alt. Az. Time Alt. Az.
24 Jul - 12:03:07 10° SSE 12:08:51 17° SE 12:14:31 10° E daylight
24 Jul - 14:02:37 10° SW 14:12:05 48° SE 14:21:20 10° ENE daylight
24 Jul - 16:06:35 10° WSW 16:16:36 79° SSE 16:26:18 10° E daylight
24 Jul - 18:11:43 10° W 18:21:37 77° SSW 18:31:10 10° ESE daylight
24 Jul - 20:16:56 10° WNW 20:25:56 44° SW 20:34:39 10° SSE daylight
24 Jul - 22:24:36 10° W 22:28:51 14° WSW 22:33:04 10° SSW visible
25 Jul - 11:41:55 10° SSE 11:47:16 16° SE 11:52:35 10° E daylight
25 Jul - 13:41:02 10° SSW 13:50:26 46° SE 13:59:39 10° ENE daylight
25 Jul - 15:44:53 10° WSW 15:54:55 78° SSE 16:04:39 10° E daylight
25 Jul - 17:50:01 10° W 17:59:57 78° SSW 18:09:31 10° ESE daylight
25 Jul - 19:55:14 10° WNW 20:04:20 46° SW 20:13:08 10° SSE daylight
25 Jul - 22:02:32 10° W 22:07:18 15° SW 22:12:01 10° SSW visible
26 Jul - 11:20:47 10° SSE 11:25:42 15° SE 11:30:35 10° E daylight
26 Jul - 13:19:28 10° SSW 13:28:48 45° SE 13:37:59 10° ENE daylight
26 Jul - 15:23:11 10° WSW 15:33:14 77° SSE 15:43:00 10° E daylight
26 Jul - 17:28:19 10° W 17:38:17 79° S 17:47:53 10° ESE daylight
26 Jul - 19:33:32 10° WNW 19:42:43 47° SW 19:51:36 10° SE daylight
26 Jul - 21:40:33 10° W 21:45:46 16° SW 21:50:55 10° SSW visible
27 Jul - 10:59:43 10° SSE 11:04:09 14° ESE 11:08:33 10° E daylight
27 Jul - 12:57:53 10° SSW 13:07:10 43° SE 13:16:17 10° ENE daylight
27 Jul - 15:01:31 10° WSW 15:11:34 76° SSE 15:21:20 10° E daylight
27 Jul - 17:06:36 10° W 17:16:36 80° S 17:26:14 10° ESE daylight
27 Jul - 19:11:48 10° WNW 19:21:06 49° SSW 19:30:04 10° SE daylight
27 Jul - 21:18:37 10° W 21:24:13 17° SW 21:29:45 10° SSW visible
28 Jul - 10:38:44 10° SE 10:42:35 13° ESE 10:46:24 10° E daylight
28 Jul - 12:36:21 10° SSW 12:45:33 42° SE 12:54:36 10° ENE daylight
28 Jul - 14:39:49 10° WSW 14:49:53 75° SSE 14:59:41 10° E daylight
28 Jul - 16:44:55 10° W 16:54:56 80° S 17:04:36 10° ESE daylight
28 Jul - 18:50:07 10° WNW 18:59:28 51° SSW 19:08:31 10° SE daylight
28 Jul - 20:56:42 10° W 21:02:40 18° SW 21:08:32 10° SSW visible
29 Jul - 10:17:55 10° SE 10:21:01 12° ESE 10:24:07 10° ESE daylight
29 Jul - 12:14:48 10° SSW 12:23:55 40° SE 12:32:53 10° ENE daylight
29 Jul - 14:18:08 10° WSW 14:28:12 74° SSE 14:38:01 10° E daylight
29 Jul - 16:23:12 10° W 16:33:15 81° S 16:42:58 10° ESE daylight
29 Jul - 18:28:24 10° WNW 18:37:51 53° SSW 18:46:58 10° SE daylight
29 Jul - 20:34:49 10° W 20:41:06 20° SW 20:47:18 10° S daylight
30 Jul - 09:57:22 10° SE 09:59:28 11° ESE 10:01:33 10° ESE daylight
30 Jul - 11:53:15 10° SSW 12:02:17 38° SE 12:11:12 10° ENE daylight
30 Jul - 13:56:28 10° WSW 14:06:32 73° SSE 14:16:21 10° E daylight
30 Jul - 16:01:30 10° W 16:11:34 82° S 16:21:18 10° ESE daylight
30 Jul - 18:06:42 10° WNW 18:16:13 54° SSW 18:25:25 10° SE daylight
30 Jul - 20:12:56 10° W 20:19:33 21° SW 20:26:02 10° S daylight
31 Jul - 11:31:44 10° SSW 11:40:40 37° SE 11:49:29 10° ENE daylight
31 Jul - 13:34:47 10° WSW 13:44:51 71° SSE 13:54:41 10° E daylight
31 Jul - 15:39:47 10° W 15:49:52 82° S 15:59:39 10° E daylight
31 Jul - 17:44:59 10° WNW 17:54:35 56° SSW 18:03:50 10° SE daylight
31 Jul - 19:51:06 10° W 19:57:59 22° SW 20:04:43 10° S daylight
01 Aug - 11:10:14 10° SSW 11:19:02 36° SE 11:27:46 10° ENE daylight
01 Aug - 13:13:07 10° WSW 13:23:11 70° SSE 13:33:01 10° E daylight
01 Aug - 15:18:04 10° W 15:28:12 82° S 15:38:00 10° E daylight
01 Aug - 17:23:17 10° WNW 17:32:56 58° SSW 17:42:16 10° SE daylight
01 Aug - 19:29:17 10° W 19:36:24 23° SW 19:43:24 10° S daylight
02 Aug - 10:48:43 10° SSW 10:57:25 34° SE 11:06:03 10° ENE daylight
02 Aug - 12:51:28 10° WSW 13:01:30 69° SSE 13:11:21 10° E daylight
02 Aug - 14:56:23 10° W 15:06:30 83° S 15:16:20 10° E daylight
02 Aug - 17:01:35 10° WNW 17:11:18 59° SSW 17:20:41 10° SE daylight
02 Aug - 19:07:28 10° W 19:14:50 25° SW 19:22:03 10° S daylight
